Time,TemperatureF,DewpointF,PressureIn,WindDirection,WindDirectionDegrees,WindSpeedMPH,WindSpeedGustMPH,Humidity,HourlyPrecipIn,Conditions,Clouds,dailyrainin,SoftwareType,DateUTC
2013-02-26 00:06:00,34.0,30.8,30.08,NE,45,2.7,-999.0,88,-99.99,,,0.00,Acu-Link.com,2013-02-26 05:06:00,
2013-02-26 00:21:00,33.6,30.4,30.09,ENE,67,0.0,-999.0,88,-99.99,,,0.00,Acu-Link.com,2013-02-26 05:21:00,
2013-02-26 00:37:00,33.6,30.4,30.10,ENE,67,0.0,-999.0,88,-99.99,,,0.00,Acu-Link.com,2013-02-26 05:37:00,
2013-02-26 00:52:00,33.6,30.4,30.10,NNE,22,2.2,-999.0,88,-99.99,,,0.00,Acu-Link.com,2013-02-26 05:52:00,
2013-02-26 01:07:00,33.4,30.5,30.10,NE,45,2.7,-999.0,89,-99.99,,,0.00,Acu-Link.com,2013-02-26 06:07:00,
2013-02-26 01:23:00,33.3,30.4,30.10,ENE,67,1.7,-999.0,89,-99.99,,,0.00,Acu-Link.com,2013-02-26 06:23:00,
2013-02-26 01:38:00,33.4,30.5,30.11,ENE,67,2.2,-999.0,89,-99.99,,,0.00,Acu-Link.com,2013-02-26 06:38:00,
2013-02-26 01:53:00,32.5,29.6,30.11,NE,45,0.0,-999.0,89,-99.99,,,0.00,Acu-Link.com,2013-02-26 06:53:00,
2013-02-26 02:09:00,32.4,29.5,30.11,NE,45,3.2,-999.0,89,-99.99,,,0.00,Acu-Link.com,2013-02-26 07:09:00,
2013-02-26 02:24:00,32.4,29.8,30.10,ENE,67,4.2,-999.0,90,-99.99,,,0.00,Acu-Link.com,2013-02-26 07:24:00,
2013-02-26 02:39:00,32.5,29.3,30.11,East,90,2.2,-999.0,88,-99.99,,,0.00,Acu-Link.com,2013-02-26 07:39:00,
2013-02-26 02:54:00,32.7,29.5,30.10,North,0,0.0,-999.0,88,-99.99,,,0.00,Acu-Link.com,2013-02-26 07:54:00,
2013-02-26 03:10:00,32.7,29.5,30.11,ENE,67,1.1,-999.0,88,-99.99,,,0.00,Acu-Link.com,2013-02-26 08:10:00,
2013-02-26 03:25:00,32.9,29.5,30.11,NE,45,2.2,-999.0,87,-99.99,,,0.00,Acu-Link.com,2013-02-26 08:25:00,
2013-02-26 03:40:00,33.4,29.7,30.12,NE,45,3.7,-999.0,86,-99.99,,,0.00,Acu-Link.com,2013-02-26 08:40:00,
2013-02-26 03:55:00,33.6,29.3,30.13,ENE,67,3.2,-999.0,84,-99.99,,,0.00,Acu-Link.com,2013-02-26 08:55:00,
2013-02-26 07:05:00,34.2,24.0,30.19,NE,45,3.2,-999.0,66,-99.99,,,0.00,Acu-Link.com,2013-02-26 12:05:00,
2013-02-26 07:20:00,34.9,25.1,30.19,ENE,67,3.7,-999.0,67,-99.99,,,0.00,Acu-Link.com,2013-02-26 12:20:00,
2013-02-26 07:35:00,35.2,25.0,30.19,ESE,112,2.2,-999.0,66,-99.99,,,0.00,Acu-Link.com,2013-02-26 12:35:00,
2013-02-26 07:50:00,35.8,25.6,30.19,NE,45,4.7,-999.0,66,-99.99,,,0.00,Acu-Link.com,2013-02-26 12:50:00,
2013-02-26 08:06:00,36.3,26.4,30.19,NNE,22,2.7,-999.0,67,-99.99,,,0.00,Acu-Link.com,2013-02-26 13:06:00,
2013-02-26 08:21:00,37.4,26.7,30.20,North,0,2.7,-999.0,65,-99.99,,,0.00,Acu-Link.com,2013-02-26 13:21:00,
2013-02-26 08:36:00,39.4,28.3,30.21,East,90,1.7,-999.0,64,-99.99,,,0.00,Acu-Link.com,2013-02-26 13:36:00,
2013-02-26 08:51:00,41.4,27.7,30.21,East,90,2.7,-999.0,58,-99.99,,,0.00,Acu-Link.com,2013-02-26 13:51:00,
2013-02-26 09:07:00,43.3,28.2,30.21,East,90,2.7,-999.0,55,-99.99,,,0.00,Acu-Link.com,2013-02-26 14:07:00,
2013-02-26 09:22:00,44.6,28.1,30.20,ENE,67,3.2,-999.0,52,-99.99,,,0.00,Acu-Link.com,2013-02-26 14:22:00,
2013-02-26 09:37:00,45.3,28.3,30.22,ENE,67,3.2,-999.0,51,-99.99,,,0.00,Acu-Link.com,2013-02-26 14:37:00,
2013-02-26 09:52:00,45.3,27.8,30.21,ESE,112,2.7,-999.0,50,-99.99,,,0.00,Acu-Link.com,2013-02-26 14:52:00,
2013-02-26 10:07:00,46.2,28.1,30.21,ESE,112,4.2,-999.0,49,-99.99,,,0.00,Acu-Link.com,2013-02-26 15:07:00,
2013-02-26 10:23:00,45.7,28.6,30.21,ESE,112,4.2,-999.0,51,-99.99,,,0.00,Acu-Link.com,2013-02-26 15:23:00,
2013-02-26 10:38:00,47.1,28.9,30.21,ESE,112,3.2,-999.0,49,-99.99,,,0.00,Acu-Link.com,2013-02-26 15:38:00,
2013-02-26 10:53:00,46.9,28.2,30.21,ESE,112,4.2,-999.0,48,-99.99,,,0.00,Acu-Link.com,2013-02-26 15:53:00,
2013-02-26 11:08:00,46.2,28.1,30.20,ESE,112,5.3,-999.0,49,-99.99,,,0.00,Acu-Link.com,2013-02-26 16:08:00,
2013-02-26 11:24:00,45.1,27.6,30.20,ESE,112,5.8,-999.0,50,-99.99,,,0.00,Acu-Link.com,2013-02-26 16:24:00,
2013-02-26 11:39:00,44.8,27.8,30.20,SSE,157,3.2,-999.0,51,-99.99,,,0.00,Acu-Link.com,2013-02-26 16:39:00,
2013-02-26 11:54:00,41.9,29.0,30.19,South,180,6.8,-999.0,60,-99.99,,,0.00,Acu-Link.com,2013-02-26 16:54:00,
2013-02-26 12:09:00,41.2,28.8,30.18,SSW,202,6.3,-999.0,61,-99.99,,,0.00,Acu-Link.com,2013-02-26 17:09:00,
2013-02-26 12:24:00,41.7,29.3,30.18,SSW,202,5.8,-999.0,61,-99.99,,,0.00,Acu-Link.com,2013-02-26 17:24:00,
2013-02-26 12:39:00,41.5,27.4,30.18,South,180,6.3,-999.0,57,-99.99,,,0.00,Acu-Link.com,2013-02-26 17:39:00,
2013-02-26 12:55:00,41.5,26.6,30.18,South,180,5.8,-999.0,55,-99.99,,,0.00,Acu-Link.com,2013-02-26 17:55:00,
2013-02-26 13:10:00,42.1,27.1,30.17,South,180,5.8,-999.0,55,-99.99,,,0.00,Acu-Link.com,2013-02-26 18:10:00,
2013-02-26 13:25:00,41.9,27.4,30.18,SSE,157,6.3,-999.0,56,-99.99,,,0.00,Acu-Link.com,2013-02-26 18:25:00,
2013-02-26 13:40:00,41.4,28.6,30.18,South,180,7.3,-999.0,60,-99.99,,,0.00,Acu-Link.com,2013-02-26 18:40:00,
2013-02-26 13:55:00,41.4,29.4,30.18,South,180,7.3,-999.0,62,-99.99,,,0.00,Acu-Link.com,2013-02-26 18:55:00,
2013-02-26 14:10:00,40.3,28.7,30.18,South,180,7.3,-999.0,63,-99.99,,,0.00,Acu-Link.com,2013-02-26 19:10:00,
2013-02-26 14:25:00,40.3,29.5,30.19,South,180,7.3,-999.0,65,-99.99,,,0.00,Acu-Link.com,2013-02-26 19:25:00,
2013-02-26 14:41:00,41.0,29.8,30.18,South,180,6.8,-999.0,64,-99.99,,,0.00,Acu-Link.com,2013-02-26 19:41:00,
2013-02-26 14:56:00,40.3,29.5,30.18,SSW,202,6.8,-999.0,65,-99.99,,,0.00,Acu-Link.com,2013-02-26 19:56:00,
2013-02-26 15:11:00,39.6,28.4,30.17,South,180,7.3,-999.0,64,-99.99,,,0.00,Acu-Link.com,2013-02-26 20:11:00,
2013-02-26 15:26:00,39.2,28.4,30.17,South,180,5.8,-999.0,65,-99.99,,,0.00,Acu-Link.com,2013-02-26 20:26:00,
2013-02-26 15:41:00,39.2,27.7,30.17,SSE,157,6.3,-999.0,63,-99.99,,,0.00,Acu-Link.com,2013-02-26 20:41:00,
2013-02-26 15:57:00,38.8,28.4,30.17,South,180,5.8,-999.0,66,-99.99,,,0.00,Acu-Link.com,2013-02-26 20:57:00,
2013-02-26 16:12:00,39.0,26.3,30.15,SSE,157,5.8,-999.0,60,-99.99,,,0.00,Acu-Link.com,2013-02-26 21:12:00,
2013-02-26 16:27:00,38.8,26.5,30.15,South,180,5.8,-999.0,61,-99.99,,,0.00,Acu-Link.com,2013-02-26 21:27:00,
2013-02-26 16:42:00,38.7,25.6,30.17,South,180,5.8,-999.0,59,-99.99,,,0.00,Acu-Link.com,2013-02-26 21:42:00,
2013-02-26 16:58:00,38.5,25.4,30.17,SSE,157,4.2,-999.0,59,-99.99,,,0.00,Acu-Link.com,2013-02-26 21:58:00,
2013-02-26 17:13:00,38.3,26.0,30.16,SSE,157,3.7,-999.0,61,-99.99,,,0.00,Acu-Link.com,2013-02-26 22:13:00,
2013-02-26 17:28:00,38.3,24.8,30.15,SSE,157,5.3,-999.0,58,-99.99,,,0.00,Acu-Link.com,2013-02-26 22:28:00,
2013-02-26 17:43:00,38.3,26.8,30.16,SSE,157,4.7,-999.0,63,-99.99,,,0.00,Acu-Link.com,2013-02-26 22:43:00,
2013-02-26 17:59:00,38.3,27.6,30.14,South,180,6.3,-999.0,65,-99.99,,,0.00,Acu-Link.com,2013-02-26 22:59:00,
2013-02-26 18:14:00,38.3,28.7,30.15,South,180,5.8,-999.0,68,-99.99,,,0.00,Acu-Link.com,2013-02-26 23:14:00,
2013-02-26 18:29:00,38.3,29.4,30.16,SSW,202,4.7,-999.0,70,-99.99,,,0.00,Acu-Link.com,2013-02-26 23:29:00,
2013-02-26 18:44:00,38.3,29.7,30.16,SSE,157,6.8,-999.0,71,-99.99,,,0.00,Acu-Link.com,2013-02-26 23:44:00,
2013-02-26 18:59:00,38.3,30.1,30.16,SSE,157,7.8,-999.0,72,-99.99,,,0.00,Acu-Link.com,2013-02-26 23:59:00,
2013-02-26 19:15:00,38.3,29.7,30.17,SSE,157,6.8,-999.0,71,-99.99,,,0.00,Acu-Link.com,2013-02-27 00:15:00,
2013-02-26 19:30:00,38.3,29.7,30.14,SSE,157,5.8,-999.0,71,-99.99,,,0.00,Acu-Link.com,2013-02-27 00:30:00,
2013-02-26 19:45:00,38.3,29.7,30.14,SSE,157,6.8,-999.0,71,-99.99,,,0.00,Acu-Link.com,2013-02-27 00:45:00,
2013-02-26 20:00:00,38.3,29.7,30.13,South,180,5.8,-999.0,71,-99.99,,,0.00,Acu-Link.com,2013-02-27 01:00:00,
2013-02-26 20:16:00,38.3,29.4,30.14,South,180,7.3,-999.0,70,-99.99,,,0.00,Acu-Link.com,2013-02-27 01:16:00,
2013-02-26 20:31:00,38.5,29.2,30.15,South,180,6.8,-999.0,69,-99.99,,,0.00,Acu-Link.com,2013-02-27 01:31:00,
2013-02-26 20:46:00,38.5,29.2,30.16,SSE,157,5.3,-999.0,69,-99.99,,,0.00,Acu-Link.com,2013-02-27 01:46:00,
2013-02-26 21:01:00,38.5,28.9,30.15,SSE,157,4.7,-999.0,68,-99.99,,,0.00,Acu-Link.com,2013-02-27 02:01:00,
2013-02-26 21:31:00,38.1,28.1,30.15,SSE,157,4.7,-999.0,67,-99.99,,,0.00,Acu-Link.com,2013-02-27 02:31:00,
2013-02-26 21:47:00,38.1,28.5,30.13,SE,135,6.3,-999.0,68,-99.99,,,0.00,Acu-Link.com,2013-02-27 02:47:00,
2013-02-26 22:02:00,37.4,31.2,30.13,ESE,112,3.7,-999.0,78,-99.99,,,0.00,Acu-Link.com,2013-02-27 03:02:00,
2013-02-26 22:17:00,36.9,31.3,30.13,ENE,67,4.2,-999.0,80,-99.99,,,0.00,Acu-Link.com,2013-02-27 03:17:00,
2013-02-26 22:33:00,36.7,31.4,30.12,ESE,112,4.2,-999.0,81,-99.99,,,0.00,Acu-Link.com,2013-02-27 03:33:00,
2013-02-26 22:48:00,37.4,30.9,30.12,SE,135,5.8,-999.0,77,-99.99,,,0.00,Acu-Link.com,2013-02-27 03:48:00,
2013-02-26 23:03:00,37.4,30.5,30.10,ESE,112,5.3,-999.0,76,-99.99,,,0.00,Acu-Link.com,2013-02-27 04:03:00,
2013-02-26 23:18:00,36.3,30.1,30.11,NE,45,5.3,-999.0,78,-99.99,,,0.00,Acu-Link.com,2013-02-27 04:18:00,
2013-02-26 23:34:00,34.5,29.6,30.11,NE,45,3.7,-999.0,82,-99.99,,,0.00,Acu-Link.com,2013-02-27 04:34:00,
2013-02-26 23:49:00,35.1,30.2,30.09,NE,45,5.3,-999.0,82,-99.99,,,0.00,Acu-Link.com,2013-02-27 04:49:00,